| time (UTC) | temp F | wind direction | speed knots | gust knots | rain 1hr in | rain 24hr in | rain mn in | humidity % | barometer mb |
| 20260504151005 | 59 | 294 | 7.0 | 21.7 | 0.00 | 0.00 | 0.00 | 40 | 1010.6 |
| 20260504150509 | 59 | 234 | 8.7 | 22.6 | 0.00 | 0.00 | 0.00 | 39 | 1010.5 |
| 20260504141006 | 57 | 244 | 4.3 | 17.4 | 0.00 | 0.00 | 0.00 | 42 | 1011.0 |
| 20260504140507 | 57 | 185 | 7.8 | 17.4 | 0.00 | 0.00 | 0.00 | 41 | 1011.0 |
| 20260504130508 | 53 | 213 | 3.5 | 14.8 | 0.00 | 0.00 | 0.00 | 49 | 1011.4 |
| 20260504110504 | 45 | 208 | 4.3 | 8.7 | 0.00 | 0.00 | 0.00 | 58 | 1011.4 |
| 20260504100508 | 44 | 192 | 3.5 | 8.7 | 0.00 | 0.00 | 0.00 | 58 | 1011.0 |
| 20260504082006 | 41 | 173 | 2.6 | 5.2 | 0.00 | 0.00 | 0.00 | 66 | 1010.5 |
| 20260504081530 | 41 | 184 | 1.7 | 6.1 | 0.00 | 0.00 | 0.00 | 65 | 1010.5 |
| 20260504081007 | 41 | 165 | 2.6 | 6.1 | 0.00 | 0.00 | 0.00 | 64 | 1010.5 |
| 20260504080509 | 41 | 171 | 1.7 | 4.3 | 0.00 | 0.00 | 0.00 | 66 | 1010.5 |
| 20260504050506 | 41 | 159 | 1.7 | 4.3 | 0.00 | 0.00 | 0.00 | 69 | 1010.6 |
| 20260504050021 | 40 | 173 | 2.6 | 4.3 | 0.00 | 0.00 | 0.00 | 70 | 1010.7 |
| 20260504045507 | 39 | 175 | 1.7 | 4.3 | 0.00 | 0.00 | 0.00 | 73 | 1010.7 |
| 20260504045005 | 39 | 178 | 1.7 | 3.5 | 0.00 | 0.00 | 0.00 | 75 | 1010.7 |
| 20260504044524 | 38 | 164 | 1.7 | 3.5 | 0.00 | 0.00 | 0.00 | 77 | 1010.8 |
| 20260504044009 | 38 | 180 | 0.9 | 1.7 | 0.00 | 0.00 | 0.00 | 77 | 1010.9 |
| 20260504043509 | 38 | 190 | 1.7 | 1.7 | 0.00 | 0.00 | 0.00 | 76 | 1010.9 |
| 20260504043028 | 38 | 198 | 0.9 | 1.7 | 0.00 | 0.00 | 0.00 | 75 | 1010.9 |
| 20260504042507 | 38 | 199 | 0.9 | 1.7 | 0.00 | 0.00 | 0.00 | 74 | 1010.8 |
| 20260504042008 | 38 | 201 | 0.9 | 1.7 | 0.00 | 0.00 | 0.00 | 74 | 1010.8 |
| 20260504041533 | 38 | 201 | 0.9 | 1.7 | 0.00 | 0.00 | 0.00 | 73 | 1010.7 |
| 20260504041005 | 38 | 201 | 1.7 | 1.7 | 0.00 | 0.00 | 0.00 | 73 | 1010.7 |
| 20260504040507 | 38 | 199 | 0.9 | 1.7 | 0.00 | 0.00 | 0.00 | 71 | 1010.8 |
| 20260504040021 | 39 | 199 | 0.9 | 2.6 | 0.00 | 0.00 | 0.00 | 71 | 1010.8 |
| 20260504035506 | 39 | 199 | 1.7 | 2.6 | 0.00 | 0.00 | 0.00 | 71 | 1010.7 |
| 20260504035006 | 39 | 200 | 1.7 | 2.6 | 0.00 | 0.00 | 0.00 | 71 | 1010.7 |
| 20260504034523 | 39 | 198 | 0.9 | 2.6 | 0.00 | 0.00 | 0.00 | 70 | 1010.6 |
| 20260504034006 | 39 | 198 | 0.9 | 2.6 | 0.00 | 0.00 | 0.00 | 70 | 1010.6 |
| 20260504033506 | 39 | 199 | 1.7 | 2.6 | 0.00 | 0.00 | 0.00 | 69 | 1010.7 |
| 20260504033027 | 40 | 193 | 1.7 | 1.7 | 0.00 | 0.00 | 0.00 | 68 | 1010.6 |
| 20260504032511 | 40 | 193 | 0.9 | 1.7 | 0.00 | 0.00 | 0.00 | 67 | 1010.7 |
| 20260504032009 | 40 | 193 | 1.7 | 1.7 | 0.00 | 0.00 | 0.00 | 66 | 1010.6 |
| 20260504031528 | 40 | 193 | 0.9 | 1.7 | 0.00 | 0.00 | 0.00 | 66 | 1010.6 |
| 20260504031010 | 40 | 193 | 1.7 | 2.6 | 0.00 | 0.00 | 0.00 | 67 | 1010.5 |
| 20260504030509 | 40 | 192 | 1.7 | 2.6 | 0.00 | 0.00 | 0.00 | 66 | 1010.4 |
| 20260504030014 | 40 | 202 | 0.9 | 2.6 | 0.00 | 0.00 | 0.00 | 65 | 1010.5 |
| 20260504025504 | 40 | 203 | 1.7 | 2.6 | 0.00 | 0.00 | 0.00 | 65 | 1010.5 |
| 20260504025005 | 41 | 204 | 1.7 | 2.6 | 0.00 | 0.00 | 0.00 | 64 | 1010.4 |
| 20260504024519 | 41 | 335 | 0.0 | 2.6 | 0.00 | 0.00 | 0.00 | 64 | 1010.4 |
| 20260504024005 | 41 | 290 | 1.7 | 2.6 | 0.00 | 0.00 | 0.00 | 64 | 1010.4 |
| 20260504023507 | 40 | 230 | 0.9 | 2.6 | 0.00 | 0.00 | 0.00 | 64 | 1010.5 |
| 20260504023021 | 41 | 333 | 0.9 | 2.6 | 0.00 | 0.00 | 0.00 | 63 | 1010.5 |
| 20260504022507 | 41 | 207 | 0.9 | 1.7 | 0.00 | 0.00 | 0.00 | 63 | 1010.6 |
| 20260504022009 | 41 | 197 | 0.0 | 1.7 | 0.00 | 0.00 | 0.00 | 60 | 1010.6 |
| 20260504021524 | 42 | 197 | 0.9 | 1.7 | 0.00 | 0.00 | 0.00 | 60 | 1010.6 |
| 20260504021008 | 42 | 197 | 1.7 | 1.7 | 0.00 | 0.00 | 0.00 | 61 | 1010.6 |
| 20260504020510 | 42 | 200 | 0.9 | 1.7 | 0.00 | 0.00 | 0.00 | 61 | 1010.5 |
| 20260504020035 | 42 | 200 | 0.9 | 2.6 | 0.00 | 0.00 | 0.00 | 61 | 1010.5 |
| 20260504015510 | 43 | 209 | 0.9 | 2.6 | 0.00 | 0.00 | 0.00 | 60 | 1010.4 |
| 20260504015010 | 43 | 242 | 0.0 | 1.7 | 0.00 | 0.00 | 0.00 | 60 | 1010.5 |
| 20260504014520 | 43 | 272 | 0.0 | 1.7 | 0.00 | 0.00 | 0.00 | 60 | 1010.5 |
| 20260504014010 | 44 | 293 | 0.0 | 0.9 | 0.00 | 0.00 | 0.00 | 58 | 1010.4 |
| 20260504013511 | 44 | 295 | 0.0 | 3.5 | 0.00 | 0.00 | 0.00 | 55 | 1010.2 |
| 20260504013024 | 44 | 347 | 0.0 | 3.5 | 0.00 | 0.00 | 0.00 | 53 | 1010.1 |
| 20260504012510 | 45 | 318 | 0.0 | 2.6 | 0.00 | 0.00 | 0.00 | 50 | 1010.1 |
| 20260504012008 | 45 | 5 | 0.0 | 2.6 | 0.00 | 0.00 | 0.00 | 50 | 1010.1 |
| 20260504011525 | 46 | 22 | 0.0 | 3.5 | 0.00 | 0.00 | 0.00 | 48 | 1010.0 |
| 20260504011006 | 46 | 328 | 0.0 | 5.2 | 0.00 | 0.00 | 0.00 | 46 | 1010.0 |
| 20260504010512 | 46 | 360 | 0.0 | 5.2 | 0.00 | 0.00 | 0.00 | 45 | 1009.9 |
| 20260504010011 | 46 | 302 | 1.7 | 5.2 | 0.00 | 0.00 | 0.00 | 44 | 1009.9 |
| 20260504005504 | 46 | 325 | 2.6 | 7.0 | 0.00 | 0.00 | 0.00 | 42 | 1009.8 |
| 20260504005005 | 46 | 342 | 3.5 | 7.0 | 0.00 | 0.00 | 0.00 | 43 | 1009.8 |
| 20260504004516 | 45 | 331 | 2.6 | 7.0 | 0.00 | 0.00 | 0.00 | 43 | 1009.7 |
| 20260504004003 | 45 | 311 | 3.5 | 7.0 | 0.00 | 0.00 | 0.00 | 44 | 1009.7 |
| 20260504003505 | 45 | 350 | 0.9 | 2.6 | 0.00 | 0.00 | 0.00 | 44 | 1009.7 |
| 20260504003018 | 46 | 340 | 0.9 | 4.3 | 0.00 | 0.00 | 0.00 | 44 | 1009.6 |
| 20260504002505 | 46 | 22 | 0.9 | 4.3 | 0.00 | 0.00 | 0.00 | 46 | 1009.5 |
| 20260504002008 | 46 | 360 | 0.9 | 3.5 | 0.00 | 0.00 | 0.00 | 48 | 1009.4 |
| 20260504001530 | 46 | 15 | 1.7 | 3.5 | 0.00 | 0.00 | 0.00 | 43 | 1009.2 |
| 20260504001008 | 47 | 47 | 0.9 | 3.5 | 0.00 | 0.00 | 0.00 | 43 | 1009.1 |
| 20260504000508 | 47 | 335 | 0.9 | 3.5 | 0.00 | 0.00 | 0.00 | 43 | 1009.2 |
| 20260504000025 | 47 | 318 | 0.0 | 6.1 | 0.00 | 0.00 | 0.00 | 42 | 1009.1 |
| 20260503235506 | 47 | 319 | 1.7 | 6.1 | 0.00 | 0.00 | 0.00 | 37 | 1009.1 |
| 20260503235009 | 48 | 311 | 1.7 | 5.2 | 0.00 | 0.00 | 0.00 | 37 | 1009.0 |
| 20260503234516 | 48 | 344 | 1.7 | 5.2 | 0.00 | 0.00 | 0.00 | 39 | 1009.0 |
| 20260503234003 | 48 | 313 | 0.9 | 6.1 | 0.00 | 0.00 | 0.00 | 38 | 1008.9 |
| 20260503233502 | 48 | 315 | 1.7 | 6.1 | 0.00 | 0.00 | 0.00 | 38 | 1008.9 |
| 20260503233019 | 48 | 291 | 2.6 | 4.3 | 0.00 | 0.00 | 0.00 | 37 | 1008.9 |
| 20260503232503 | 48 | 78 | 0.0 | 9.6 | 0.00 | 0.00 | 0.00 | 36 | 1008.8 |
| 20260503232007 | 49 | 333 | 2.6 | 9.6 | 0.00 | 0.00 | 0.00 | 36 | 1008.8 |
| 20260503231522 | 49 | 352 | 2.6 | 9.6 | 0.00 | 0.00 | 0.00 | 35 | 1008.8 |
| 20260503231007 | 49 | 360 | 0.9 | 7.0 | 0.00 | 0.00 | 0.00 | 35 | 1008.8 |
| 20260503230507 | 49 | 331 | 2.6 | 13.0 | 0.00 | 0.00 | 0.00 | 35 | 1008.7 |
| 20260503230036 | 49 | 264 | 7.0 | 13.0 | 0.00 | 0.00 | 0.00 | 34 | 1008.7 |
| 20260503225508 | 49 | 33 | 2.6 | 10.4 | 0.00 | 0.00 | 0.00 | 35 | 1008.7 |
| 20260503225007 | 49 | 306 | 1.7 | 8.7 | 0.00 | 0.00 | 0.00 | 36 | 1008.7 |
| 20260503224527 | 49 | 187 | 3.5 | 11.3 | 0.00 | 0.00 | 0.00 | 35 | 1008.7 |
| 20260503224007 | 49 | 329 | 5.2 | 12.2 | 0.00 | 0.00 | 0.00 | 34 | 1008.7 |
| 20260503223511 | 49 | 292 | 2.6 | 12.2 | 0.00 | 0.00 | 0.00 | 34 | 1008.7 |
| 20260503223016 | 50 | 360 | 6.1 | 11.3 | 0.00 | 0.00 | 0.00 | 36 | 1008.6 |
| 20260503222503 | 50 | 352 | 7.0 | 12.2 | 0.00 | 0.00 | 0.00 | 35 | 1008.7 |
| 20260503222007 | 50 | 352 | 5.2 | 13.0 | 0.00 | 0.00 | 0.00 | 36 | 1008.6 |
| 20260503221515 | 50 | 240 | 3.5 | 13.0 | 0.00 | 0.00 | 0.00 | 36 | 1008.6 |
| 20260503221007 | 50 | 15 | 2.6 | 13.0 | 0.00 | 0.00 | 0.00 | 36 | 1008.6 |
| 20260503220509 | 50 | 302 | 7.0 | 13.0 | 0.00 | 0.00 | 0.00 | 36 | 1008.7 |
| 20260503220022 | 50 | 352 | 5.2 | 13.0 | 0.00 | 0.00 | 0.00 | 37 | 1008.5 |
| 20260503215508 | 50 | 292 | 5.2 | 13.0 | 0.00 | 0.00 | 0.00 | 37 | 1008.4 |
| 20260503215010 | 50 | 34 | 5.2 | 11.3 | 0.00 | 0.00 | 0.00 | 39 | 1008.5 |
| 20260503214536 | 50 | 117 | 4.3 | 13.9 | 0.00 | 0.00 | 0.00 | 37 | 1008.5 |
| 20260503214010 | 50 | 5 | 4.3 | 13.9 | 0.00 | 0.00 | 0.00 | 38 | 1008.5 |
| 20260503213510 | 50 | 352 | 3.5 | 13.0 | 0.00 | 0.00 | 0.00 | 39 | 1008.4 |
| 20260503213028 | 50 | 13 | 7.0 | 15.6 | 0.00 | 0.00 | 0.00 | 38 | 1008.4 |
| 20260503212508 | 50 | 13 | 7.0 | 15.6 | 0.00 | 0.00 | 0.00 | 38 | 1008.3 |
| 20260503212011 | 51 | 317 | 4.3 | 13.9 | 0.00 | 0.00 | 0.00 | 38 | 1008.3 |
| 20260503211516 | 50 | 38 | 2.6 | 14.8 | 0.00 | 0.00 | 0.00 | 37 | 1008.5 |
| 20260503211008 | 50 | 333 | 7.8 | 14.8 | 0.00 | 0.00 | 0.00 | 37 | 1008.3 |
| 20260503210506 | 50 | 342 | 2.6 | 12.2 | 0.00 | 0.00 | 0.00 | 40 | 1008.3 |
| 20260503210020 | 50 | 338 | 7.0 | 19.1 | 0.00 | 0.00 | 0.00 | 39 | 1008.3 |
| 20260503205509 | 49 | 9 | 5.2 | 19.1 | 0.00 | 0.00 | 0.00 | 38 | 1008.5 |
| 20260503205008 | 49 | 305 | 7.8 | 20.0 | 0.00 | 0.00 | 0.00 | 39 | 1008.6 |
| 20260503204525 | 50 | 25 | 7.8 | 20.0 | 0.00 | 0.00 | 0.00 | 40 | 1008.6 |
| 20260503204008 | 49 | 360 | 7.8 | 20.0 | 0.00 | 0.00 | 0.00 | 41 | 1008.5 |
| 20260503203506 | 49 | 317 | 3.5 | 20.0 | 0.00 | 0.00 | 0.00 | 39 | 1008.5 |
| 20260503203033 | 49 | 22 | 6.1 | 17.4 | 0.00 | 0.00 | 0.00 | 40 | 1008.5 |
| 20260503202511 | 49 | 268 | 7.0 | 17.4 | 0.00 | 0.00 | 0.00 | 41 | 1008.5 |
| 20260503202015 | 48 | 360 | 5.2 | 15.6 | 0.00 | 0.00 | 0.00 | 42 | 1008.3 |
| 20260503201526 | 48 | 333 | 7.0 | 17.4 | 0.00 | 0.00 | 0.00 | 41 | 1008.2 |
| 20260503201007 | 48 | 350 | 5.2 | 18.2 | 0.00 | 0.00 | 0.00 | 41 | 1008.5 |
| 20260503200509 | 48 | 30 | 7.8 | 18.2 | 0.00 | 0.00 | 0.00 | 41 | 1008.4 |
| 20260503200017 | 47 | 336 | 3.5 | 18.2 | 0.00 | 0.00 | 0.00 | 43 | 1008.5 |
| 20260503195505 | 47 | 314 | 10.4 | 19.1 | 0.00 | 0.00 | 0.00 | 41 | 1008.5 |
| 20260503195008 | 47 | 327 | 9.6 | 19.1 | 0.00 | 0.00 | 0.00 | 42 | 1008.6 |
| 20260503194525 | 48 | 306 | 8.7 | 17.4 | 0.00 | 0.00 | 0.00 | 40 | 1008.6 |
| 20260503194009 | 49 | 360 | 8.7 | 15.6 | 0.00 | 0.00 | 0.00 | 39 | 1008.6 |
| 20260503193509 | 49 | 5 | 9.6 | 14.8 | 0.00 | 0.00 | 0.00 | 40 | 1008.7 |
| 20260503193040 | 49 | 298 | 7.0 | 14.8 | 0.00 | 0.00 | 0.00 | 39 | 1008.6 |
| 20260503192509 | 49 | 281 | 6.1 | 14.8 | 0.00 | 0.00 | 0.00 | 40 | 1008.7 |
| 20260503192004 | 49 | 352 | 7.8 | 13.0 | 0.00 | 0.00 | 0.00 | 41 | 1008.7 |
| 20260503191524 | 48 | 349 | 6.1 | 19.1 | 0.00 | 0.00 | 0.00 | 42 | 1008.6 |
| 20260503191004 | 47 | 46 | 7.8 | 19.1 | 0.00 | 0.00 | 0.00 | 41 | 1008.7 |
| 20260503190504 | 47 | 5 | 9.6 | 16.5 | 0.00 | 0.00 | 0.00 | 41 | 1008.6 |
| 20260503190023 | 47 | 326 | 7.0 | 19.1 | 0.00 | 0.00 | 0.00 | 43 | 1008.7 |
| 20260503185503 | 47 | 336 | 4.3 | 19.1 | 0.00 | 0.00 | 0.00 | 42 | 1008.7 |
| 20260503185006 | 47 | 328 | 8.7 | 18.2 | 0.00 | 0.00 | 0.00 | 43 | 1008.7 |
| 20260503184515 | 46 | 146 | 9.6 | 18.2 | 0.00 | 0.00 | 0.00 | 43 | 1008.8 |
| 20260503184005 | 46 | 300 | 7.8 | 21.7 | 0.00 | 0.00 | 0.00 | 44 | 1008.9 |
| 20260503183502 | 46 | 344 | 11.3 | 21.7 | 0.00 | 0.00 | 0.00 | 42 | 1008.8 |
| 20260503183005 | 46 | 333 | 5.2 | 16.5 | 0.00 | 0.00 | 0.00 | 45 | 1008.9 |
| 20260503182503 | 46 | 286 | 7.8 | 16.5 | 0.00 | 0.00 | 0.00 | 44 | 1008.9 |
| 20260503182004 | 46 | 338 | 4.3 | 13.9 | 0.00 | 0.00 | 0.00 | 43 | 1008.9 |
| 20260503181508 | 46 | 284 | 6.1 | 13.9 | 0.00 | 0.00 | 0.00 | 43 | 1008.8 |
| 20260503181004 | 46 | 334 | 4.3 | 17.4 | 0.00 | 0.00 | 0.00 | 43 | 1008.9 |
| 20260503180504 | 46 | 317 | 5.2 | 17.4 | 0.00 | 0.00 | 0.00 | 42 | 1008.9 |
| 20260503180014 | 46 | 5 | 4.3 | 14.8 | 0.00 | 0.00 | 0.00 | 43 | 1008.8 |
| 20260503175507 | 46 | 338 | 4.3 | 17.4 | 0.00 | 0.00 | 0.00 | 43 | 1008.8 |
| 20260503175003 | 46 | 352 | 8.7 | 17.4 | 0.00 | 0.00 | 0.00 | 43 | 1008.7 |
| 20260503174514 | 46 | 325 | 6.1 | 14.8 | 0.00 | 0.00 | 0.00 | 44 | 1008.8 |
| 20260503174007 | 46 | 5 | 6.1 | 17.4 | 0.00 | 0.00 | 0.00 | 45 | 1008.6 |
| 20260503173505 | 46 | 313 | 9.6 | 17.4 | 0.00 | 0.00 | 0.00 | 43 | 1008.8 |
| 20260503173015 | 46 | 9 | 7.8 | 18.2 | 0.00 | 0.00 | 0.00 | 42 | 1008.7 |
| 20260503172505 | 46 | 360 | 9.6 | 18.2 | 0.00 | 0.00 | 0.00 | 42 | 1008.6 |
| 20260503172001 | 46 | 321 | 6.1 | 13.9 | 0.00 | 0.00 | 0.00 | 42 | 1008.5 |
| 20260503171508 | 46 | 294 | 8.7 | 13.9 | 0.00 | 0.00 | 0.00 | 41 | 1008.5 |
| 20260503171002 | 46 | 360 | 6.1 | 13.0 | 0.00 | 0.00 | 0.00 | 44 | 1008.5 |
| 20260503170507 | 46 | 15 | 4.3 | 16.5 | 0.00 | 0.00 | 0.00 | 41 | 1008.6 |